ACA1550 KMSP-CYUL

Flight info

Callsign ACA1550
Flight time 1h 50m
Altitude 35000
Route WLSTN7 WLSTN DCT SSM DCT BEMOG LFLER7
Aircraft A320/M-SDE3FGHIRWY/LB1

Departure

Time 2026-05-04 21:21
Airport Minneapolis–Saint Paul International Airport / Wold–Chamberlain Field (KMSP)

Arrival

Time 2026-05-04 23:12
Airport Montreal / Pierre Elliott Trudeau International Airport (CYUL)
Time Latitude Longitude Altitude Speed Heading
2026-05-04 21:12 44.88399 -93.21271 820 ft 2 kts 293°
2026-05-04 21:13 44.88398 -93.21269 820 ft 0 kts 293°
2026-05-04 21:14 44.88406 -93.21294 825 ft 6 kts 293°
2026-05-04 21:15 44.88424 -93.21352 824 ft 7 kts 293°
2026-05-04 21:15 44.88446 -93.21422 825 ft 10 kts 293°
2026-05-04 21:15 44.88476 -93.21519 825 ft 11 kts 294°
2026-05-04 21:15 44.88508 -93.21618 825 ft 11 kts 293°
2026-05-04 21:16 44.88478 -93.21707 821 ft 11 kts 224°
2026-05-04 21:16 44.88418 -93.21792 822 ft 13 kts 225°
2026-05-04 21:16 44.88348 -93.21890 825 ft 15 kts 224°
2026-05-04 21:16 44.88258 -93.21913 825 ft 14 kts 135°
2026-05-04 21:17 44.88206 -93.21793 824 ft 15 kts 121°
2026-05-04 21:17 44.88146 -93.21655 825 ft 23 kts 121°
2026-05-04 21:17 44.88059 -93.21455 824 ft 23 kts 121°
2026-05-04 21:17 44.87977 -93.21268 824 ft 21 kts 122°
2026-05-04 21:18 44.87904 -93.21100 825 ft 19 kts 121°
2026-05-04 21:18 44.87839 -93.20950 826 ft 17 kts 121°
2026-05-04 21:18 44.87766 -93.20778 826 ft 24 kts 121°
2026-05-04 21:18 44.87680 -93.20583 824 ft 22 kts 121°
2026-05-04 21:19 44.87603 -93.20400 826 ft 21 kts 121°
2026-05-04 21:19 44.87534 -93.20241 824 ft 17 kts 122°
2026-05-04 21:19 44.87493 -93.20149 826 ft 10 kts 122°
2026-05-04 21:19 44.87451 -93.20076 826 ft 10 kts 152°
2026-05-04 21:20 44.87401 -93.20101 827 ft 8 kts 216°
2026-05-04 21:20 44.87384 -93.20196 826 ft 15 kts 299°
2026-05-04 21:20 44.87460 -93.20370 822 ft 40 kts 301°
2026-05-04 21:20 44.87725 -93.20983 825 ft 103 kts 301°
2026-05-04 21:21 44.88188 -93.22061 851 ft 148 kts 301°
2026-05-04 21:21 44.88703 -93.23283 1590 ft 142 kts 300°
2026-05-04 21:21 44.89201 -93.24478 2336 ft 143 kts 300°
2026-05-04 21:21 44.89738 -93.25779 2632 ft 165 kts 300°
2026-05-04 21:22 44.90362 -93.27270 2923 ft 188 kts 300°
2026-05-04 21:22 44.91063 -93.28939 3269 ft 208 kts 301°
2026-05-04 21:22 44.91829 -93.30755 3804 ft 225 kts 301°
2026-05-04 21:22 44.92805 -93.32573 4417 ft 240 kts 319°
2026-05-04 21:23 44.94323 -93.33602 5151 ft 251 kts 347°
2026-05-04 21:23 44.96098 -93.33408 6033 ft 265 kts 14°
2026-05-04 21:23 44.97716 -93.32057 6833 ft 281 kts 39°
2026-05-04 21:23 44.98881 -93.29762 7600 ft 293 kts 54°
2026-05-04 21:24 44.99928 -93.27248 8341 ft 301 kts 54°
2026-05-04 21:24 45.00987 -93.24651 9076 ft 308 kts 54°
2026-05-04 21:24 45.02049 -93.22031 9769 ft 315 kts 53°
2026-05-04 21:24 45.03158 -93.19303 10329 ft 328 kts 53°
2026-05-04 21:25 45.04341 -93.16411 10577 ft 352 kts 54°
2026-05-04 21:25 45.05613 -93.13320 10766 ft 375 kts 54°
2026-05-04 21:25 45.06964 -93.10033 10982 ft 395 kts 54°
2026-05-04 21:25 45.08356 -93.06623 11518 ft 404 kts 55°
2026-05-04 21:26 45.09768 -93.03146 12114 ft 411 kts 55°
2026-05-04 21:26 45.11204 -92.99613 12694 ft 418 kts 55°
2026-05-04 21:26 45.12671 -92.96019 13280 ft 424 kts 55°
2026-05-04 21:26 45.14156 -92.92375 13817 ft 431 kts 55°
2026-05-04 21:27 45.15663 -92.88674 14371 ft 436 kts 55°
2026-05-04 21:27 45.17181 -92.84936 14913 ft 441 kts 55°
2026-05-04 21:27 45.18720 -92.81135 15453 ft 446 kts 55°
2026-05-04 21:27 45.20271 -92.77304 15999 ft 451 kts 55°
2026-05-04 21:28 45.21843 -92.73411 16533 ft 457 kts 54°
2026-05-04 21:28 45.23431 -92.69473 17074 ft 462 kts 55°
2026-05-04 21:28 45.24841 -92.65328 17595 ft 473 kts 64°
2026-05-04 21:28 45.25814 -92.60816 18096 ft 483 kts 75°
2026-05-04 21:29 45.26481 -92.56115 18548 ft 488 kts 76°
2026-05-04 21:29 45.27150 -92.51367 18987 ft 492 kts 76°
2026-05-04 21:29 45.27827 -92.46598 19454 ft 495 kts 77°
2026-05-04 21:29 45.28510 -92.41787 19920 ft 499 kts 77°
2026-05-04 21:30 45.29187 -92.37011 20369 ft 502 kts 77°
2026-05-04 21:30 45.29877 -92.32136 20812 ft 505 kts 77°
2026-05-04 21:30 45.30578 -92.27163 21251 ft 508 kts 77°
2026-05-04 21:30 45.31269 -92.22223 21669 ft 511 kts 77°
2026-05-04 21:31 45.32643 -92.12323 22475 ft 517 kts 77°
2026-05-04 21:31 45.33339 -92.07295 22863 ft 520 kts 78°
2026-05-04 21:31 45.34035 -92.02234 23245 ft 523 kts 78°
2026-05-04 21:32 45.34731 -91.97148 23564 ft 526 kts 78°
2026-05-04 21:32 45.35429 -91.92034 23891 ft 528 kts 78°
2026-05-04 21:32 45.36130 -91.86890 24206 ft 531 kts 78°
2026-05-04 21:32 45.36832 -91.81725 24511 ft 533 kts 78°
2026-05-04 21:33 45.37533 -91.76539 24815 ft 535 kts 78°
2026-05-04 21:33 45.38233 -91.71328 25113 ft 538 kts 78°
2026-05-04 21:33 45.38936 -91.66098 25410 ft 540 kts 78°
2026-05-04 21:33 45.39641 -91.60844 25697 ft 542 kts 78°
2026-05-04 21:34 45.40347 -91.55569 25974 ft 544 kts 78°
2026-05-04 21:34 45.41055 -91.50259 26243 ft 546 kts 78°
2026-05-04 21:34 45.41761 -91.44948 26502 ft 548 kts 78°
2026-05-04 21:34 45.42467 -91.39610 26742 ft 550 kts 78°
2026-05-04 21:35 45.43174 -91.34241 26981 ft 552 kts 78°
2026-05-04 21:35 45.43877 -91.28874 27218 ft 553 kts 79°
2026-05-04 21:35 45.44570 -91.23544 27451 ft 555 kts 79°
2026-05-04 21:35 45.45273 -91.18131 27747 ft 555 kts 79°
2026-05-04 21:36 45.45970 -91.12728 28079 ft 555 kts 79°
2026-05-04 21:36 45.46665 -91.07324 28404 ft 555 kts 79°
2026-05-04 21:36 45.47358 -91.01915 28733 ft 554 kts 79°
2026-05-04 21:36 45.48101 -90.96529 29059 ft 554 kts 77°
2026-05-04 21:37 45.48959 -90.91175 29391 ft 553 kts 75°
2026-05-04 21:37 45.49900 -90.85861 29706 ft 553 kts 73°
2026-05-04 21:37 45.50883 -90.80570 29979 ft 552 kts 73°
2026-05-04 21:37 45.51867 -90.75278 30261 ft 552 kts 73°
2026-05-04 21:38 45.52822 -90.69969 30542 ft 552 kts 74°
2026-05-04 21:38 45.53738 -90.64667 30796 ft 551 kts 75°
2026-05-04 21:38 45.54625 -90.59342 31079 ft 551 kts 75°
2026-05-04 21:38 45.55492 -90.54017 31362 ft 551 kts 75°
2026-05-04 21:39 45.56357 -90.48700 31643 ft 550 kts 75°
2026-05-04 21:39 45.57227 -90.43382 31927 ft 550 kts 75°
2026-05-04 21:39 45.58106 -90.38077 32216 ft 549 kts 74°
2026-05-04 21:39 45.58990 -90.32778 32502 ft 549 kts 74°
2026-05-04 21:40 45.59875 -90.27476 32788 ft 548 kts 74°
2026-05-04 21:40 45.60754 -90.22185 33074 ft 548 kts 74°
2026-05-04 21:40 45.61631 -90.16882 33361 ft 548 kts 74°
2026-05-04 21:40 45.62497 -90.11591 33634 ft 547 kts 74°
2026-05-04 21:41 45.63355 -90.06296 33887 ft 546 kts 74°
2026-05-04 21:41 45.64206 -90.01016 34156 ft 545 kts 75°
2026-05-04 21:41 45.65057 -89.95750 34417 ft 543 kts 75°
2026-05-04 21:42 45.66760 -89.85237 34519 ft 544 kts 75°
2026-05-04 21:42 45.68449 -89.74692 34514 ft 544 kts 75°
2026-05-04 21:43 45.70123 -89.64139 34521 ft 544 kts 75°
2026-05-04 21:43 45.71788 -89.53578 34514 ft 544 kts 75°
2026-05-04 21:44 45.73436 -89.43087 34520 ft 544 kts 75°
2026-05-04 21:44 45.75084 -89.32519 34511 ft 544 kts 75°
2026-05-04 21:45 45.76731 -89.21938 34516 ft 544 kts 75°
2026-05-04 21:45 45.78372 -89.11363 34509 ft 544 kts 76°
2026-05-04 21:46 45.79988 -89.00782 34508 ft 544 kts 76°
2026-05-04 21:46 45.81600 -88.90196 34496 ft 543 kts 76°
2026-05-04 21:47 45.83196 -88.79607 34490 ft 543 kts 76°
2026-05-04 21:47 45.84787 -88.69015 34471 ft 543 kts 76°
2026-05-04 21:48 45.86361 -88.58424 34471 ft 543 kts 76°
2026-05-04 21:48 45.87918 -88.47828 34462 ft 543 kts 76°
2026-05-04 21:49 45.89465 -88.37221 34444 ft 542 kts 76°
2026-05-04 21:49 45.91010 -88.26691 34443 ft 542 kts 76°
2026-05-04 21:50 45.92562 -88.16097 34440 ft 542 kts 77°
2026-05-04 21:50 45.94097 -88.05483 34446 ft 542 kts 77°
2026-05-04 21:51 45.95611 -87.94865 34452 ft 543 kts 77°
2026-05-04 21:51 45.97109 -87.84241 34449 ft 542 kts 77°
2026-05-04 21:52 45.98613 -87.73608 34450 ft 542 kts 77°
2026-05-04 21:52 46.00107 -87.62983 34444 ft 542 kts 77°
2026-05-04 21:53 46.01586 -87.52337 34439 ft 542 kts 77°
2026-05-04 21:53 46.03051 -87.41689 34450 ft 542 kts 77°
2026-05-04 21:54 46.04511 -87.31045 34446 ft 542 kts 77°
2026-05-04 21:54 46.05966 -87.20391 34444 ft 542 kts 77°
2026-05-04 21:55 46.07400 -87.09720 34443 ft 542 kts 78°
2026-05-04 21:55 46.08828 -86.99058 34446 ft 542 kts 78°
2026-05-04 21:56 46.10252 -86.88391 34454 ft 542 kts 78°
2026-05-04 21:56 46.11661 -86.77715 34459 ft 542 kts 78°
2026-05-04 21:57 46.13057 -86.67024 34467 ft 542 kts 78°
2026-05-04 21:57 46.14453 -86.56338 34470 ft 542 kts 78°
2026-05-04 21:58 46.15825 -86.45725 34468 ft 542 kts 78°
2026-05-04 21:58 46.17183 -86.35045 34468 ft 541 kts 78°
2026-05-04 21:59 46.18527 -86.24355 34470 ft 541 kts 79°
2026-05-04 21:59 46.19864 -86.13672 34475 ft 541 kts 79°
2026-05-04 22:00 46.21208 -86.02997 34469 ft 540 kts 79°
2026-05-04 22:00 46.22534 -85.92321 34479 ft 540 kts 79°
2026-05-04 22:01 46.23628 -85.83456 34485 ft 539 kts 79°
2026-05-04 22:01 46.24931 -85.72800 34484 ft 538 kts 79°
2026-05-04 22:02 46.26223 -85.62146 34486 ft 538 kts 79°
2026-05-04 22:02 46.27507 -85.51489 34502 ft 538 kts 79°
2026-05-04 22:03 46.28784 -85.40829 34502 ft 538 kts 79°
2026-05-04 22:03 46.30050 -85.30166 34501 ft 538 kts 79°
2026-05-04 22:04 46.31300 -85.19512 34505 ft 537 kts 79°
2026-05-04 22:04 46.32545 -85.08850 34493 ft 537 kts 79°
2026-05-04 22:05 46.33772 -84.98193 34480 ft 537 kts 79°
2026-05-04 22:05 46.34983 -84.87610 34487 ft 536 kts 80°
2026-05-04 22:06 46.36185 -84.76956 34492 ft 536 kts 80°
2026-05-04 22:06 46.37381 -84.66301 34498 ft 536 kts 80°
2026-05-04 22:07 46.38564 -84.55658 34500 ft 535 kts 80°
2026-05-04 22:07 46.39744 -84.45016 34502 ft 535 kts 80°
2026-05-04 22:08 46.40910 -84.34384 34515 ft 534 kts 81°
2026-05-04 22:08 46.41268 -84.23656 34513 ft 533 kts 90°
2026-05-04 22:09 46.41336 -84.12912 34509 ft 533 kts 90°
2026-05-04 22:09 46.41425 -84.02178 34502 ft 532 kts 90°
2026-05-04 22:10 46.41493 -83.91460 34498 ft 531 kts 90°
2026-05-04 22:10 46.41533 -83.80751 34497 ft 531 kts 90°
2026-05-04 22:11 46.41560 -83.70125 34499 ft 530 kts 90°
2026-05-04 22:11 46.41583 -83.59448 34498 ft 530 kts 90°
2026-05-04 22:12 46.41605 -83.48766 34504 ft 529 kts 90°
2026-05-04 22:12 46.41614 -83.38101 34499 ft 529 kts 90°
2026-05-04 22:13 46.41616 -83.27450 34500 ft 528 kts 90°
2026-05-04 22:13 46.41598 -83.16813 34501 ft 528 kts 90°
2026-05-04 22:14 46.41581 -83.06173 34505 ft 528 kts 90°
2026-05-04 22:14 46.41547 -82.95537 34504 ft 528 kts 91°
2026-05-04 22:15 46.41502 -82.84970 34507 ft 527 kts 91°
2026-05-04 22:15 46.41451 -82.74331 34509 ft 527 kts 91°
2026-05-04 22:16 46.41385 -82.63710 34515 ft 527 kts 91°
2026-05-04 22:16 46.41318 -82.53095 34519 ft 527 kts 91°
2026-05-04 22:17 46.41235 -82.42481 34527 ft 526 kts 91°
2026-05-04 22:17 46.41140 -82.31883 34526 ft 526 kts 91°
2026-05-04 22:18 46.41031 -82.21282 34534 ft 526 kts 91°
2026-05-04 22:18 46.40916 -82.10694 34534 ft 525 kts 91°
2026-05-04 22:19 46.40796 -82.00194 34537 ft 525 kts 91°
2026-05-04 22:19 46.40660 -81.89622 34534 ft 524 kts 91°
2026-05-04 22:20 46.40520 -81.79066 34534 ft 524 kts 91°
2026-05-04 22:20 46.40379 -81.68523 34532 ft 523 kts 91°
2026-05-04 22:21 46.40225 -81.57971 34536 ft 523 kts 91°
2026-05-04 22:21 46.40054 -81.47437 34532 ft 522 kts 91°
2026-05-04 22:22 46.39871 -81.36915 34540 ft 522 kts 91°
2026-05-04 22:22 46.39684 -81.26413 34536 ft 521 kts 91°
2026-05-04 22:23 46.39493 -81.15982 34548 ft 521 kts 91°
2026-05-04 22:23 46.39284 -81.05493 34541 ft 520 kts 92°
2026-05-04 22:24 46.39067 -80.95014 34541 ft 520 kts 91°
2026-05-04 22:24 46.38845 -80.84556 34540 ft 519 kts 92°
2026-05-04 22:25 46.38607 -80.74114 34544 ft 518 kts 92°
2026-05-04 22:25 46.38359 -80.63687 34541 ft 518 kts 92°
2026-05-04 22:26 46.38109 -80.53266 34547 ft 517 kts 92°
2026-05-04 22:26 46.37851 -80.42938 34543 ft 516 kts 92°
2026-05-04 22:27 46.37579 -80.32557 34552 ft 515 kts 92°
2026-05-04 22:27 46.37297 -80.22196 34545 ft 515 kts 92°
2026-05-04 22:28 46.37006 -80.11847 34552 ft 514 kts 92°
2026-05-04 22:28 46.36713 -80.01511 34549 ft 513 kts 92°
2026-05-04 22:29 46.36410 -79.91202 34555 ft 512 kts 92°
2026-05-04 22:29 46.36097 -79.80901 34554 ft 512 kts 92°
2026-05-04 22:30 46.35766 -79.70621 34558 ft 511 kts 92°
2026-05-04 22:30 46.35434 -79.60347 34563 ft 510 kts 92°
2026-05-04 22:31 46.35099 -79.50096 34555 ft 509 kts 92°
2026-05-04 22:31 46.34751 -79.39924 34549 ft 508 kts 92°
2026-05-04 22:32 46.34385 -79.29703 34552 ft 508 kts 92°
2026-05-04 22:32 46.34021 -79.19508 34555 ft 507 kts 92°
2026-05-04 22:33 46.33646 -79.09326 34567 ft 506 kts 92°
2026-05-04 22:33 46.33262 -78.99161 34571 ft 506 kts 92°
2026-05-04 22:34 46.32872 -78.89001 34576 ft 505 kts 92°
2026-05-04 22:34 46.32475 -78.78871 34576 ft 504 kts 93°
2026-05-04 22:35 46.32068 -78.68761 34582 ft 503 kts 93°
2026-05-04 22:35 46.31651 -78.58667 34581 ft 502 kts 93°
2026-05-04 22:36 46.31229 -78.48584 34583 ft 502 kts 93°
2026-05-04 22:36 46.30797 -78.38580 34581 ft 501 kts 93°
2026-05-04 22:37 46.30354 -78.28541 34587 ft 500 kts 93°
2026-05-04 22:37 46.29900 -78.18509 34584 ft 500 kts 93°
2026-05-04 22:38 46.29436 -78.08470 34594 ft 500 kts 93°
2026-05-04 22:38 46.28977 -77.98448 34590 ft 499 kts 93°
2026-05-04 22:39 46.28508 -77.88439 34594 ft 499 kts 94°
2026-05-04 22:39 46.28015 -77.78437 34592 ft 499 kts 94°
2026-05-04 22:40 46.27520 -77.68447 34597 ft 498 kts 94°
2026-05-04 22:40 46.27028 -77.58519 34596 ft 498 kts 94°
2026-05-04 22:41 46.26521 -77.48542 34603 ft 498 kts 94°
2026-05-04 22:41 46.26000 -77.38576 34601 ft 497 kts 94°
2026-05-04 22:42 46.25479 -77.28629 34607 ft 496 kts 94°
2026-05-04 22:42 46.24953 -77.18691 34604 ft 496 kts 94°
2026-05-04 22:43 46.24411 -77.08764 34615 ft 495 kts 94°
2026-05-04 22:43 46.23860 -76.98858 34616 ft 495 kts 94°
2026-05-04 22:44 46.23305 -76.88968 34620 ft 494 kts 94°
2026-05-04 22:44 46.22738 -76.79077 34618 ft 494 kts 94°
2026-05-04 22:45 46.22169 -76.69268 34623 ft 493 kts 94°
2026-05-04 22:45 46.21289 -76.54477 34624 ft 493 kts 94°
2026-05-04 22:46 46.20695 -76.44613 34631 ft 492 kts 94°
2026-05-04 22:46 46.20096 -76.34762 34632 ft 492 kts 95°
2026-05-04 22:47 46.19486 -76.24926 34643 ft 492 kts 95°
2026-05-04 22:47 46.18872 -76.15083 34645 ft 492 kts 95°
2026-05-04 22:48 46.18254 -76.05260 34657 ft 492 kts 95°
2026-05-04 22:48 46.17613 -75.95444 34663 ft 491 kts 95°
2026-05-04 22:49 46.16966 -75.85637 34667 ft 491 kts 95°
2026-05-04 22:49 46.16310 -75.75836 34674 ft 491 kts 95°
2026-05-04 22:50 46.15663 -75.66138 34438 ft 481 kts 95°
2026-05-04 22:50 46.15343 -75.61400 34209 ft 470 kts 95°
2026-05-04 22:50 46.15026 -75.56751 33979 ft 461 kts 95°
2026-05-04 22:51 46.14670 -75.52181 33761 ft 457 kts 96°
2026-05-04 22:51 46.14266 -75.47650 33497 ft 454 kts 97°
2026-05-04 22:51 46.13830 -75.43117 32633 ft 459 kts 97°
2026-05-04 22:51 46.13378 -75.38603 32303 ft 451 kts 97°
2026-05-04 22:52 46.12932 -75.34149 31863 ft 446 kts 97°
2026-05-04 22:52 46.12500 -75.29746 31376 ft 440 kts 97°
2026-05-04 22:52 46.12223 -75.26869 30860 ft 436 kts 97°
2026-05-04 22:52 46.11813 -75.22576 30080 ft 430 kts 96°
2026-05-04 22:53 46.11407 -75.18319 28903 ft 431 kts 96°
2026-05-04 22:53 46.10991 -75.13952 27543 ft 446 kts 96°
2026-05-04 22:53 46.10566 -75.09462 26351 ft 457 kts 96°
2026-05-04 22:53 46.09990 -75.03433 25077 ft 462 kts 96°
2026-05-04 22:54 46.09690 -75.00326 24398 ft 465 kts 96°
2026-05-04 22:54 46.09235 -74.95667 23288 ft 472 kts 96°
2026-05-04 22:54 46.08772 -74.90988 22341 ft 471 kts 96°
2026-05-04 22:54 46.08309 -74.86341 21543 ft 466 kts 96°
2026-05-04 22:55 46.07848 -74.81730 20680 ft 465 kts 96°
2026-05-04 22:55 46.07386 -74.77139 20055 ft 460 kts 96°
2026-05-04 22:55 46.06929 -74.72608 19395 ft 455 kts 96°
2026-05-04 22:55 46.06484 -74.68169 18758 ft 451 kts 96°
2026-05-04 22:56 46.06031 -74.63662 18111 ft 447 kts 96°
2026-05-04 22:56 46.05592 -74.59306 17431 ft 443 kts 96°
2026-05-04 22:56 46.05064 -74.54965 16809 ft 439 kts 104°
2026-05-04 22:56 46.03968 -74.50890 16191 ft 436 kts 118°
2026-05-04 22:57 46.02271 -74.47312 15646 ft 430 kts 132°
2026-05-04 22:57 46.00109 -74.44377 15254 ft 427 kts 142°
2026-05-04 22:57 45.97824 -74.41673 14631 ft 424 kts 142°
2026-05-04 22:57 45.95544 -74.39003 14026 ft 421 kts 142°
2026-05-04 22:58 45.93275 -74.36366 13406 ft 418 kts 142°
2026-05-04 22:58 45.91022 -74.33753 12773 ft 414 kts 142°
2026-05-04 22:58 45.88803 -74.31174 12197 ft 407 kts 142°
2026-05-04 22:58 45.86617 -74.28628 11620 ft 402 kts 142°
2026-05-04 22:59 45.84458 -74.26112 11110 ft 395 kts 142°
2026-05-04 22:59 45.82372 -74.23681 10955 ft 378 kts 142°
2026-05-04 22:59 45.80374 -74.21359 10834 ft 362 kts 143°
2026-05-04 22:59 45.78457 -74.19136 10704 ft 347 kts 143°
2026-05-04 23:00 45.76625 -74.17004 10573 ft 330 kts 141°
2026-05-04 23:00 45.75086 -74.14679 10231 ft 316 kts 127°
2026-05-04 23:00 45.73968 -74.12018 9656 ft 310 kts 119°
2026-05-04 23:00 45.72942 -74.09308 8682 ft 310 kts 122°
2026-05-04 23:01 45.72093 -74.07078 8245 ft 306 kts 123°
2026-05-04 23:01 45.71066 -74.04404 7926 ft 305 kts 123°
2026-05-04 23:01 45.70059 -74.01787 7709 ft 303 kts 123°
2026-05-04 23:01 45.69037 -73.99135 7583 ft 304 kts 123°
2026-05-04 23:02 45.68020 -73.96486 7461 ft 303 kts 123°
2026-05-04 23:02 45.67008 -73.93848 7335 ft 303 kts 123°
2026-05-04 23:02 45.65995 -73.91210 7092 ft 303 kts 123°
2026-05-04 23:02 45.64979 -73.88575 6653 ft 303 kts 123°
2026-05-04 23:03 45.63956 -73.85929 6220 ft 303 kts 123°
2026-05-04 23:03 45.62940 -73.83300 5768 ft 303 kts 123°
2026-05-04 23:03 45.61933 -73.80693 5439 ft 297 kts 123°
2026-05-04 23:03 45.61085 -73.78027 4828 ft 297 kts 106°
2026-05-04 23:04 45.61008 -73.75106 4364 ft 297 kts 79°
2026-05-04 23:04 45.61747 -73.72465 4288 ft 280 kts 54°
2026-05-04 23:04 45.63011 -73.70474 4182 ft 264 kts 39°
2026-05-04 23:04 45.64333 -73.68728 4055 ft 254 kts 39°
2026-05-04 23:05 45.65613 -73.67038 3960 ft 248 kts 39°
2026-05-04 23:05 45.66861 -73.65335 3904 ft 249 kts 48°
2026-05-04 23:05 45.67581 -73.63150 3847 ft 246 kts 84°
2026-05-04 23:05 45.67399 -73.60772 3695 ft 240 kts 118°
2026-05-04 23:06 45.66455 -73.58891 3394 ft 231 kts 139°
2026-05-04 23:06 45.65358 -73.57234 3197 ft 226 kts 142°
2026-05-04 23:06 45.64080 -73.56108 3088 ft 207 kts 168°
2026-05-04 23:06 45.62721 -73.55897 3019 ft 190 kts 192°
2026-05-04 23:07 45.61529 -73.56418 3009 ft 170 kts 212°
2026-05-04 23:07 45.60627 -73.57414 3002 ft 161 kts 224°
2026-05-04 23:07 45.59823 -73.58475 3001 ft 159 kts 224°
2026-05-04 23:07 45.59000 -73.59560 2900 ft 158 kts 225°
2026-05-04 23:08 45.58207 -73.60605 2738 ft 157 kts 224°
2026-05-04 23:08 45.57395 -73.61675 2533 ft 157 kts 224°
2026-05-04 23:08 45.56601 -73.62720 2332 ft 157 kts 224°
2026-05-04 23:08 45.55798 -73.63777 2126 ft 157 kts 223°
2026-05-04 23:09 45.54989 -73.64841 1909 ft 160 kts 224°
2026-05-04 23:09 45.54169 -73.65920 1702 ft 161 kts 223°
2026-05-04 23:09 45.53345 -73.67003 1481 ft 161 kts 223°
2026-05-04 23:09 45.52567 -73.68025 1280 ft 144 kts 222°
2026-05-04 23:10 45.51855 -73.68959 1086 ft 136 kts 223°
2026-05-04 23:10 45.51169 -73.69861 909 ft 132 kts 222°
2026-05-04 23:10 45.50493 -73.70749 732 ft 132 kts 222°
2026-05-04 23:10 45.49820 -73.71631 561 ft 131 kts 223°
2026-05-04 23:11 45.49147 -73.72513 387 ft 132 kts 221°
2026-05-04 23:11 45.48474 -73.73404 210 ft 132 kts 221°
2026-05-04 23:11 45.47822 -73.74255 112 ft 112 kts 223°
2026-05-04 23:11 45.47380 -73.74835 113 ft 61 kts 222°
2026-05-04 23:12 45.47116 -73.75183 111 ft 48 kts 223°
2026-05-04 23:12 45.46886 -73.75482 108 ft 42 kts 219°
2026-05-04 23:12 45.46636 -73.75624 106 ft 33 kts 193°
2026-05-04 23:12 45.46452 -73.75682 104 ft 27 kts 191°
2026-05-04 23:13 45.46273 -73.75730 104 ft 24 kts 182°
2026-05-04 23:13 45.46119 -73.75719 102 ft 21 kts 177°
2026-05-04 23:13 45.46055 -73.75794 104 ft 13 kts 270°
2026-05-04 23:13 45.46048 -73.75930 104 ft 14 kts 246°
2026-05-04 23:14 45.45956 -73.75956 105 ft 15 kts 177°
2026-05-04 23:14 45.45843 -73.75936 105 ft 17 kts 169°
2026-05-04 23:14 45.45763 -73.75851 105 ft 13 kts 127°
2026-05-04 23:14 45.45704 -73.75743 104 ft 15 kts 137°
2026-05-04 23:15 45.45621 -73.75682 105 ft 11 kts 114°
2026-05-04 23:15 45.45635 -73.75577 105 ft 10 kts 74°
2026-05-04 23:15 45.45672 -73.75506 105 ft 9 kts 22°
2026-05-04 23:15 45.45718 -73.75466 104 ft 7 kts 62°
2026-05-04 23:16 45.45706 -73.75418 103 ft 5 kts 124°
2026-05-04 23:16 45.45699 -73.75398 104 ft 0 kts 119°